Weather Roundup
Issued by NWS

Home | Current Version | Previous Version | Graphics & Text | Print | Product List | Glossary Off
Versions: 1 2 3 4 5 6 7 8 9 10 11 12 13 14 15 16 17 18 19 20 21 22 23 24 25 26 27 28 29 30 31 32 33 34 35 36 37 38 39 40 41 42 43 44 45 46 47 48 49 50

000
NZUS93 KARX 252210
HRRWXR

CURRENT HOURLY OBSERVATIONS ACROSS
MUCH OF THE UPPER MISSISSIPPI VALLEY
NATIONAL WEATHER SERVICE LA CROSSE WI
500 PM CDT TUE APR 25 2017


...SOUTHEAST MINNESOTA...


CITY           SKY/WX    TMP DP  RH WIND       PRES   REMARKS
ROCHESTER      CLOUDY    52  52 100 NE10      29.53F FOG
ROCHESTER/MAYO CLOUDY    53  53 100 NE6       29.53F
WINONA         CLOUDY    55  54  94 N3        29.54F
AUSTIN         CLOUDY    54  52  94 NE7       29.50F
ALBERT LEA     CLOUDY    50  48  93 N8        29.50F FOG
DODGE CENTER   CLOUDY    52  50  93 NE9       29.52F FOG
PRESTON        CLOUDY    56  51  83 NE8       29.53F
OWATONNA       TSTM      50  48  93 NE5       29.52F
FARIBAULT      LGT RAIN  48  48 100 N3        29.54F
$$

...ELSEWHERE IN MINNESOTA...


CITY           SKY/WX    TMP DP  RH WIND       PRES   REMARKS
MINNEAPOLIS    LGT RAIN  53  49  86 NE6       29.54F FOG
INTNL FALLS    CLOUDY    31  25  78 NE16G26   29.82R WCI  20
DULUTH         CLOUDY    50  38  63 E15       29.62R
RED WING       CLOUDY    55  52  88 CALM      29.54F FOG
REDWOOD FALLS  LGT RAIN  45  42  89 NW9       29.57S
MANKATO        LGT RAIN  47  45  93 NW8       29.55S
WORTHINGTON    LGT RAIN  40  39  97 N14       29.59R WCI  32
FAIRMONT       LGT RAIN  45  43  93 NW13      29.54F
$$

...SOUTHWEST WISCONSIN...


CITY           SKY/WX    TMP DP  RH WIND       PRES   REMARKS
LA CROSSE      CLOUDY    62  55  77 N7        29.53F
PRAIRIE DU CHI CLOUDY    72  43  35 E7        29.48F
BOSCOBEL       CLOUDY    75  43  31 CALM      29.50F
LONE ROCK      CLOUDY    72  43  35 SE12      29.52F
PLATTEVILLE    CLOUDY    73  43  34 SE13      29.51F
FORT MC COY    CLOUDY    58  56  91 CALM      29.57R
CAMP DOUGLAS   CLOUDY    64  54  68 S3        29.55S
MAUSTON-NEW LI CLOUDY    68  48  49 CALM      29.55S
VIROQUA        CLOUDY    69  46  43 E9        29.54F
WIS DELLS      CLOUDY    69  41  36 SE9       29.55S
$$

...ELSEWHERE IN WISCONSIN...


CITY           SKY/WX    TMP DP  RH WIND       PRES   REMARKS
MILWAUKEE      PTSUNNY   65  52  62 SE16      29.59F
MADISON        CLOUDY    73  47  39 S15       29.53F
GREEN BAY      CLOUDY    69  51  52 SE15      29.59F
EAU CLAIRE     RAIN      57  55  93 SW6       29.57R FOG
BLACK RVR FLS  LGT RAIN  58  58  99 N6        29.56F
MEDFORD        DRIZZLE   66  45  46 SW10      29.56R
WAUSAU         CLOUDY    71  41  33 S7        29.54S
WIS RAPIDS     LGT RAIN  66  47  50 S6        29.57R
MARSHFIELD     LGT RAIN  67  41  38 S13G28    29.56R
RICE LAKE      RAIN      60  51  73 SW6       29.59R
$$

...NORTHEAST IOWA...


CITY           SKY/WX    TMP DP  RH WIND       PRES   REMARKS
WATERLOO       CLOUDY    73  46  38 SE15      29.44F
DUBUQUE        PTSUNNY   72  43  35 SE15G24   29.49F
DECORAH        CLOUDY    68  48  49 E13       29.49F
MASON CITY     CLOUDY    54  50  86 NE12      29.50F
CHARLES CITY   CLOUDY    64  54  68 NE10G16   29.48F
OELWEIN        PTSUNNY   73  43  33 S17G24    29.47S
$$

...ELSEWHERE IN IOWA...


CITY           SKY/WX    TMP DP  RH WIND       PRES   REMARKS
DES MOINES     CLOUDY    72  48  42 SE8       29.41F
IOWA CITY      CLOUDY    76  46  34 SE14G24   29.45F
FORT DODGE     CLOUDY    55  46  71 N6        29.49R
MARSHALLTOWN   CLOUDY    71  46  40 SE13      29.42F
CEDAR RAPIDS   CLOUDY    75  45  34 SE12      29.43F
$$

...NORTHERN ILLINOIS...


CITY           SKY/WX    TMP DP  RH WIND       PRES   REMARKS
CHICAGO-OHARE  CLOUDY    78  50  37 SE18G24   29.54F
CHICAGO-MIDWAY CLOUDY    79  48  33 SE17G26   29.55F
MOLINE         MOSUNNY   80  42  25 SE21G26   29.45F
ROCKFORD       CLOUDY    78  46  32 S17G25    29.52F
PEORIA         MOSUNNY   79  46  31 S20G31    29.47F
$$

NOTE: "FAIR" INDICATES FEW OR NO CLOUDS BELOW 12,000 FEET WITH NO
SIGNIFICANT WEATHER AND/OR OBSTRUCTIONS TO VISIBILITY. WIND
SPEEDS ARE IN MILES-PER-HOUR.




USA.gov is the U.S. government's official web portal to all federal, state and local government web resources and services.